Location: Grand Mazuras
(45.9128°N, 1.7636°E)
Time: 17:49:09
(UTC+00:00)

Cosmos 1627 Rocket - Pass Details

Date: 18 April 2021
Orbit: 950 x 1004 km, 82.9° (Epoch: 12 May)

Event Time Altitude Azimuth Distance (km) Brightness Sun altitude
Rises 19:51:01 0° 352° (N) 3,636 8.1 -11.5°
Reaches altitude 10° 19:53:31 10° 353° (N) 2,689 7.3 -11.9°
Maximum altitude 19:59:40 81° 81° (E) 975 4.4 -12.8°
Drops below altitude 10° 20:05:51 10° 169° (S) 2,696 6.4 -13.7°
Enters shadow 20:06:54 - 170° (S) 3,095 6.7 -13.9°
